| time (UTC) | temp F | wind direction | speed knots | gust knots | rain 1hr in | rain 24hr in | rain mn in | humidity % | barometer mb |
| 20260507130106 | 69 | 288 | 0.0 | 3.5 | 0.00 | 0.00 | 0.00 | 54 | 1013.2 |
| 20260507124551 | 69 | 290 | 0.0 | 4.3 | 0.00 | 0.00 | 0.00 | 52 | 1013.0 |
| 20260507123049 | 70 | 306 | 0.0 | 3.5 | 0.00 | 0.00 | 0.00 | 52 | 1013.1 |
| 20260507121556 | 70 | 281 | 0.0 | 4.3 | 0.00 | 0.00 | 0.00 | 51 | 1013.0 |
| 20260507120053 | 70 | 257 | 0.9 | 7.8 | 0.00 | 0.00 | 0.00 | 50 | 1013.0 |
| 20260507114519 | 70 | 290 | 0.9 | 5.2 | 0.00 | 0.00 | 0.00 | 50 | 1013.1 |
| 20260507113018 | 71 | 268 | 0.9 | 4.3 | 0.00 | 0.00 | 0.00 | 51 | 1013.1 |
| 20260507111526 | 71 | 344 | 0.9 | 8.7 | 0.00 | 0.00 | 0.00 | 51 | 1013.0 |
| 20260507110022 | 71 | 342 | 1.7 | 7.0 | 0.00 | 0.00 | 0.00 | 52 | 1013.0 |
| 20260507104520 | 71 | 313 | 1.7 | 8.7 | 0.00 | 0.00 | 0.00 | 52 | 1013.1 |
| 20260507103017 | 71 | 332 | 2.6 | 7.8 | 0.00 | 0.00 | 0.00 | 51 | 1013.3 |
| 20260507101512 | 71 | 310 | 1.7 | 7.0 | 0.00 | 0.00 | 0.00 | 52 | 1013.4 |
| 20260507100104 | 71 | 315 | 0.9 | 7.0 | 0.00 | 0.00 | 0.00 | 52 | 1013.5 |
| 20260507094605 | 71 | 329 | 0.9 | 6.1 | 0.00 | 0.00 | 0.00 | 51 | 1013.4 |
| 20260507093057 | 70 | 343 | 0.9 | 4.3 | 0.00 | 0.00 | 0.00 | 53 | 1013.6 |
| 20260507091554 | 69 | 285 | 0.0 | 4.3 | 0.00 | 0.00 | 0.00 | 54 | 1013.7 |
| 20260507090053 | 70 | 286 | 0.0 | 1.7 | 0.00 | 0.00 | 0.00 | 54 | 1013.9 |
| 20260507084543 | 71 | 286 | 0.0 | 5.2 | 0.00 | 0.00 | 0.00 | 53 | 1014.0 |
| 20260507083031 | 72 | 311 | 0.9 | 4.3 | 0.00 | 0.00 | 0.00 | 51 | 1014.2 |
| 20260507081520 | 72 | 317 | 0.0 | 4.3 | 0.00 | 0.00 | 0.00 | 49 | 1014.2 |
| 20260507080022 | 73 | 320 | 0.0 | 3.5 | 0.00 | 0.00 | 0.00 | 48 | 1014.3 |
| 20260507074516 | 73 | 298 | 0.9 | 6.1 | 0.00 | 0.00 | 0.00 | 49 | 1014.3 |
| 20260507073014 | 73 | 310 | 2.6 | 7.0 | 0.00 | 0.00 | 0.00 | 49 | 1014.4 |
| 20260507071513 | 73 | 317 | 4.3 | 8.7 | 0.00 | 0.00 | 0.00 | 49 | 1014.4 |
| 20260507070059 | 74 | 317 | 3.5 | 9.6 | 0.00 | 0.00 | 0.00 | 48 | 1014.6 |
| 20260507064600 | 74 | 306 | 3.5 | 7.8 | 0.00 | 0.00 | 0.00 | 48 | 1014.7 |
| 20260507063105 | 74 | 325 | 3.5 | 7.8 | 0.00 | 0.00 | 0.00 | 48 | 1014.7 |
| 20260507061505 | 74 | 322 | 1.7 | 7.8 | 0.00 | 0.00 | 0.00 | 47 | 1014.7 |
| 20260507060010 | 75 | 316 | 3.5 | 7.0 | 0.00 | 0.00 | 0.00 | 46 | 1014.7 |
| 20260507054517 | 75 | 340 | 0.9 | 5.2 | 0.00 | 0.00 | 0.00 | 40 | 1014.7 |
| 20260507053121 | 76 | 36 | 0.0 | 1.7 | 0.00 | 0.00 | 0.00 | 38 | 1014.7 |
| 20260507051515 | 76 | 83 | 0.9 | 1.7 | 0.00 | 0.00 | 0.00 | 34 | 1014.7 |
| 20260507050026 | 77 | 83 | 0.0 | 1.7 | 0.00 | 0.00 | 0.00 | 32 | 1014.7 |
| 20260507044540 | 78 | 83 | 0.0 | 0.9 | 0.00 | 0.00 | 0.00 | 31 | 1014.6 |
| 20260507043047 | 78 | 83 | 0.0 | 1.7 | 0.00 | 0.00 | 0.00 | 31 | 1014.6 |
| 20260507041554 | 79 | 83 | 0.0 | 0.9 | 0.00 | 0.00 | 0.00 | 31 | 1014.6 |
| 20260507040055 | 79 | 83 | 0.0 | 2.6 | 0.00 | 0.00 | 0.00 | 30 | 1014.5 |
| 20260507034556 | 80 | 116 | 0.0 | 2.6 | 0.00 | 0.00 | 0.00 | 29 | 1014.2 |
| 20260507033053 | 80 | 123 | 0.0 | 2.6 | 0.00 | 0.00 | 0.00 | 29 | 1014.0 |
| 20260507031548 | 81 | 127 | 0.0 | 1.7 | 0.00 | 0.00 | 0.00 | 29 | 1013.6 |
| 20260507030049 | 82 | 127 | 0.9 | 3.5 | 0.00 | 0.00 | 0.00 | 29 | 1013.4 |
| 20260507024558 | 82 | 128 | 0.9 | 2.6 | 0.00 | 0.00 | 0.00 | 29 | 1013.3 |
| 20260507023049 | 83 | 131 | 1.7 | 4.3 | 0.00 | 0.00 | 0.00 | 28 | 1013.1 |
| 20260507021554 | 84 | 118 | 1.7 | 7.0 | 0.00 | 0.00 | 0.00 | 27 | 1012.9 |
| 20260507020115 | 85 | 109 | 2.6 | 7.8 | 0.00 | 0.00 | 0.00 | 26 | 1012.7 |
| 20260507014507 | 86 | 134 | 3.5 | 6.1 | 0.00 | 0.00 | 0.00 | 25 | 1012.6 |
| 20260507013037 | 87 | 126 | 2.6 | 9.6 | 0.00 | 0.00 | 0.00 | 25 | 1012.5 |
| 20260507011517 | 88 | 132 | 2.6 | 5.2 | 0.00 | 0.00 | 0.00 | 25 | 1012.5 |
| 20260507010023 | 89 | 107 | 3.5 | 7.0 | 0.00 | 0.00 | 0.00 | 24 | 1012.5 |
| 20260507004503 | 89 | 94 | 3.5 | 7.8 | 0.00 | 0.00 | 0.00 | 24 | 1012.5 |
| 20260507003000 | 90 | 98 | 4.3 | 8.7 | 0.00 | 0.00 | 0.00 | 23 | 1012.4 |
| 20260507001510 | 91 | 105 | 4.3 | 7.8 | 0.00 | 0.00 | 0.00 | 23 | 1012.3 |
| 20260507000008 | 91 | 115 | 2.6 | 6.1 | 0.00 | 0.00 | 0.00 | 22 | 1012.2 |
| 20260506234517 | 91 | 113 | 1.7 | 6.1 | 0.00 | 0.00 | 0.00 | 23 | 1012.3 |
| 20260506233027 | 91 | 97 | 2.6 | 7.0 | 0.00 | 0.00 | 0.00 | 23 | 1012.3 |
| 20260506231522 | 92 | 107 | 2.6 | 7.8 | 0.00 | 0.00 | 0.00 | 22 | 1012.4 |
| 20260506230015 | 92 | 186 | 1.7 | 6.1 | 0.00 | 0.00 | 0.00 | 21 | 1012.5 |
| 20260506224514 | 91 | 109 | 0.9 | 7.0 | 0.00 | 0.00 | 0.00 | 22 | 1012.7 |
| 20260506223009 | 90 | 128 | 2.6 | 7.8 | 0.00 | 0.00 | 0.00 | 23 | 1013.0 |
| 20260506221508 | 90 | 113 | 1.7 | 7.8 | 0.00 | 0.00 | 0.00 | 23 | 1013.2 |
| 20260506220008 | 90 | 132 | 3.5 | 7.8 | 0.00 | 0.00 | 0.00 | 23 | 1013.5 |
| 20260506214508 | 90 | 120 | 0.9 | 4.3 | 0.00 | 0.00 | 0.00 | 24 | 1013.8 |
| 20260506213113 | 89 | 115 | 2.6 | 7.8 | 0.00 | 0.00 | 0.00 | 23 | 1014.1 |
| 20260506211554 | 89 | 144 | 3.5 | 6.1 | 0.00 | 0.00 | 0.00 | 24 | 1014.3 |
| 20260506210041 | 88 | 115 | 0.9 | 6.1 | 0.00 | 0.00 | 0.00 | 25 | 1014.5 |
| 20260506204538 | 88 | 152 | 0.9 | 3.5 | 0.00 | 0.00 | 0.00 | 23 | 1014.6 |
| 20260506203037 | 86 | 194 | 0.0 | 4.3 | 0.00 | 0.00 | 0.00 | 23 | 1014.8 |
| 20260506201540 | 85 | 149 | 1.7 | 4.3 | 0.00 | 0.00 | 0.00 | 25 | 1015.1 |
| 20260506200033 | 86 | 169 | 1.7 | 5.2 | 0.00 | 0.00 | 0.00 | 25 | 1015.2 |
| 20260506194542 | 85 | 134 | 0.0 | 3.5 | 0.00 | 0.00 | 0.00 | 27 | 1015.6 |
| 20260506193050 | 84 | 157 | 1.7 | 6.1 | 0.00 | 0.00 | 0.00 | 27 | 1015.8 |
| 20260506191555 | 84 | 146 | 1.7 | 4.3 | 0.00 | 0.00 | 0.00 | 28 | 1015.9 |
| 20260506190004 | 83 | 128 | 0.0 | 2.6 | 0.00 | 0.00 | 0.00 | 28 | 1016.2 |
| 20260506184512 | 81 | 194 | 0.9 | 4.3 | 0.00 | 0.00 | 0.00 | 30 | 1016.4 |
| 20260506183027 | 79 | 317 | 0.0 | 1.7 | 0.00 | 0.00 | 0.00 | 32 | 1016.5 |
| 20260506181519 | 79 | 319 | 0.9 | 6.1 | 0.00 | 0.00 | 0.00 | 32 | 1016.7 |
| 20260506180029 | 76 | 343 | 0.0 | 1.7 | 0.00 | 0.00 | 0.00 | 34 | 1016.7 |
| 20260506174525 | 75 | 344 | 0.0 | 4.3 | 0.00 | 0.00 | 0.00 | 37 | 1016.7 |
| 20260506173020 | 74 | 344 | 0.9 | 5.2 | 0.00 | 0.00 | 0.00 | 39 | 1016.7 |
| 20260506171519 | 73 | 272 | 0.0 | 3.5 | 0.00 | 0.00 | 0.00 | 40 | 1016.8 |
| 20260506170019 | 72 | 205 | 0.0 | 3.5 | 0.00 | 0.00 | 0.00 | 41 | 1016.7 |
| 20260506164510 | 71 | 249 | 0.0 | 2.6 | 0.00 | 0.00 | 0.00 | 44 | 1016.8 |
| 20260506163018 | 70 | 258 | 0.9 | 1.7 | 0.00 | 0.00 | 0.00 | 47 | 1016.9 |
| 20260506161527 | 69 | 279 | 0.9 | 3.5 | 0.00 | 0.00 | 0.00 | 45 | 1016.9 |
| 20260506160030 | 68 | 289 | 0.0 | 1.7 | 0.00 | 0.00 | 0.00 | 48 | 1016.8 |
| 20260506154539 | 67 | 300 | 0.9 | 3.5 | 0.00 | 0.00 | 0.00 | 50 | 1016.6 |
| 20260506153041 | 67 | 303 | 0.9 | 2.6 | 0.00 | 0.00 | 0.00 | 50 | 1016.7 |
| 20260506151536 | 66 | 310 | 0.9 | 2.6 | 0.00 | 0.00 | 0.00 | 51 | 1016.7 |
| 20260506150022 | 66 | 312 | 0.9 | 2.6 | 0.00 | 0.00 | 0.00 | 54 | 1016.7 |
| 20260506144520 | 65 | 318 | 0.0 | 4.3 | 0.00 | 0.00 | 0.00 | 54 | 1016.6 |
| 20260506143015 | 63 | 278 | 0.9 | 5.2 | 0.00 | 0.00 | 0.00 | 56 | 1016.5 |
| 20260506141513 | 62 | 262 | 2.6 | 7.0 | 0.00 | 0.00 | 0.00 | 57 | 1016.3 |
| 20260506140015 | 62 | 319 | 1.7 | 8.7 | 0.00 | 0.00 | 0.00 | 57 | 1016.2 |
| 20260506134510 | 61 | 346 | 3.5 | 7.8 | 0.00 | 0.00 | 0.00 | 57 | 1016.0 |
| 20260506133008 | 61 | 334 | 2.6 | 8.7 | 0.00 | 0.00 | 0.00 | 58 | 1015.8 |
| 20260506131505 | 61 | 333 | 2.6 | 8.7 | 0.00 | 0.00 | 0.00 | 58 | 1015.7 |